Time,TemperatureF,DewpointF,PressureIn,WindDirection,WindDirectionDegrees,WindSpeedMPH,WindSpeedGustMPH,Humidity,HourlyPrecipIn,Conditions,Clouds,dailyrainin,SoftwareType,DateUTC
2013-02-26 00:00:00,30.4,12.0,31.99,WNW,292,0.0,0.0,46,0.00,CLR,SKC,0.00,WeatherDisplay:10.37,2013-02-26 07:00:00,
2013-02-26 00:05:00,30.4,12.0,32.00,WNW,292,1.2,0.0,46,0.00,CLR,SKC,0.00,WeatherDisplay:10.37,2013-02-26 07:05:00,
2013-02-26 00:10:00,30.6,12.2,31.89,WNW,292,1.2,1.2,46,0.00,CLR,SKC,0.00,WeatherDisplay:10.37,2013-02-26 07:10:00,
2013-02-26 00:15:00,30.7,12.4,31.99,WNW,292,1.2,3.3,46,0.00,CLR,SKC,0.00,WeatherDisplay:10.37,2013-02-26 07:15:00,
2013-02-26 00:20:00,30.9,12.5,31.99,WNW,292,3.5,3.5,46,0.00,CLR,SKC,0.00,WeatherDisplay:10.37,2013-02-26 07:20:00,
2013-02-26 00:25:00,31.1,12.7,31.99,WNW,292,0.0,0.0,46,0.00,CLR,SKC,0.00,WeatherDisplay:10.37,2013-02-26 07:25:00,
2013-02-26 00:30:00,31.3,12.9,31.89,WNW,292,0.0,0.0,46,0.00,CLR,SKC,0.00,WeatherDisplay:10.37,2013-02-26 07:30:00,
2013-02-26 00:35:00,31.1,12.2,31.99,WNW,292,0.0,0.0,45,0.00,CLR,SKC,0.00,WeatherDisplay:10.37,2013-02-26 07:35:00,
2013-02-26 00:40:00,30.9,12.0,31.89,WNW,292,0.0,0.0,45,0.00,CLR,SKC,0.00,WeatherDisplay:10.37,2013-02-26 07:40:00,
2013-02-26 00:45:00,30.9,12.5,31.99,WNW,292,0.0,0.0,46,0.00,CLR,SKC,0.00,WeatherDisplay:10.37,2013-02-26 07:45:00,
2013-02-26 00:50:00,30.7,11.9,31.89,WNW,292,0.0,0.0,45,0.00,CLR,SKC,0.00,WeatherDisplay:10.37,2013-02-26 07:50:00,
2013-02-26 00:55:00,30.7,12.4,32.00,WNW,292,0.0,0.0,46,0.00,CLR,SKC,0.00,WeatherDisplay:10.37,2013-02-26 07:55:00,
2013-02-26 01:00:00,30.6,12.2,31.99,WNW,292,0.0,0.0,46,0.00,CLR,SKC,0.00,WeatherDisplay:10.37,2013-02-26 08:00:00,
2013-02-26 01:05:00,30.4,12.0,31.99,WNW,292,0.0,0.0,46,0.00,CLR,SKC,0.00,WeatherDisplay:10.37,2013-02-26 08:05:00,
2013-02-26 01:10:00,30.0,11.7,31.89,WNW,292,0.0,0.0,46,0.00,CLR,SKC,0.00,WeatherDisplay:10.37,2013-02-26 08:10:00,
2013-02-26 01:15:00,29.3,11.5,31.99,NW,315,2.3,2.3,47,0.00,CLR,SKC,0.00,WeatherDisplay:10.37,2013-02-26 08:15:00,
2013-02-26 01:20:00,28.8,11.0,31.98,WNW,292,0.0,0.0,47,0.00,CLR,SKC,0.00,WeatherDisplay:10.37,2013-02-26 08:20:00,
2013-02-26 01:25:00,28.2,11.0,31.98,WNW,292,0.0,0.0,48,0.00,CLR,SKC,0.00,WeatherDisplay:10.37,2013-02-26 08:25:00,
2013-02-26 01:30:00,27.7,11.0,31.98,WNW,292,5.8,5.8,49,0.00,CLR,SKC,0.00,WeatherDisplay:10.37,2013-02-26 08:30:00,
2013-02-26 01:35:00,27.5,11.3,31.98,WNW,292,9.2,9.2,50,0.00,CLR,SKC,0.00,WeatherDisplay:10.37,2013-02-26 08:35:00,
2013-02-26 01:40:00,27.5,11.7,31.97,WNW,292,8.1,8.1,51,0.00,CLR,SKC,0.00,WeatherDisplay:10.37,2013-02-26 08:40:00,
2013-02-26 01:45:00,27.7,11.9,31.97,WNW,292,6.9,6.9,51,0.00,CLR,SKC,0.00,WeatherDisplay:10.37,2013-02-26 08:45:00,
2013-02-26 01:50:00,27.7,11.9,31.97,WNW,292,6.9,6.9,51,0.00,CLR,SKC,0.00,WeatherDisplay:10.37,2013-02-26 08:50:00,
2013-02-26 01:55:00,27.9,12.1,31.89,WNW,292,6.9,6.9,51,0.00,CLR,SKC,0.00,WeatherDisplay:10.37,2013-02-26 08:55:00,
2013-02-26 02:00:00,28.0,12.2,31.97,WNW,292,0.0,0.0,51,0.00,CLR,SKC,0.00,WeatherDisplay:10.37,2013-02-26 09:00:00,
2013-02-26 02:05:00,28.2,12.4,31.97,WNW,292,0.0,0.0,51,0.00,CLR,SKC,0.00,WeatherDisplay:10.37,2013-02-26 09:05:00,
2013-02-26 02:10:00,28.2,12.4,31.98,WNW,292,0.0,0.0,51,0.00,CLR,SKC,0.00,WeatherDisplay:10.37,2013-02-26 09:10:00,
2013-02-26 02:15:00,28.2,11.9,31.89,WNW,292,0.0,0.0,50,0.00,CLR,SKC,0.00,WeatherDisplay:10.37,2013-02-26 09:15:00,
2013-02-26 02:20:00,28.2,11.9,31.98,WNW,292,0.0,0.0,50,0.00,CLR,SKC,0.00,WeatherDisplay:10.37,2013-02-26 09:20:00,
2013-02-26 02:25:00,28.2,11.9,31.98,WNW,292,0.0,0.0,50,0.00,CLR,SKC,0.00,WeatherDisplay:10.37,2013-02-26 09:25:00,
2013-02-26 02:30:00,28.2,12.4,31.89,WNW,292,0.0,0.0,51,0.00,CLR,SKC,0.00,WeatherDisplay:10.37,2013-02-26 09:30:00,
2013-02-26 02:35:00,27.7,11.9,31.97,WNW,292,0.0,0.0,51,0.00,CLR,SKC,0.00,WeatherDisplay:10.37,2013-02-26 09:35:00,
2013-02-26 02:40:00,27.1,11.4,31.97,WNW,292,0.0,0.0,51,0.00,CLR,SKC,0.00,WeatherDisplay:10.37,2013-02-26 09:40:00,
2013-02-26 02:45:00,26.4,11.2,31.97,WNW,292,0.0,0.0,52,0.00,CLR,SKC,0.00,WeatherDisplay:10.37,2013-02-26 09:45:00,
2013-02-26 02:50:00,26.2,11.0,31.89,WNW,292,0.0,0.0,52,0.00,CLR,SKC,0.00,WeatherDisplay:10.37,2013-02-26 09:50:00,
2013-02-26 02:55:00,26.2,11.0,31.96,WNW,292,0.0,0.0,52,0.00,CLR,SKC,0.00,WeatherDisplay:10.37,2013-02-26 09:55:00,
2013-02-26 03:00:00,25.9,10.6,31.96,WNW,292,0.0,0.0,52,0.00,CLR,SKC,0.00,WeatherDisplay:10.37,2013-02-26 10:00:00,
2013-02-26 03:05:00,25.5,10.3,31.96,WNW,292,0.0,0.0,52,0.00,CLR,SKC,0.00,WeatherDisplay:10.37,2013-02-26 10:05:00,
2013-02-26 03:10:00,25.3,10.1,31.89,WNW,292,0.0,0.0,52,0.00,CLR,SKC,0.00,WeatherDisplay:10.37,2013-02-26 10:10:00,
2013-02-26 03:15:00,25.3,10.6,31.96,WNW,292,0.0,0.0,53,0.00,CLR,SKC,0.00,WeatherDisplay:10.37,2013-02-26 10:15:00,
2013-02-26 03:20:00,25.3,10.6,31.96,WNW,292,0.0,0.0,53,0.00,CLR,SKC,0.00,WeatherDisplay:10.37,2013-02-26 10:20:00,
2013-02-26 03:25:00,25.3,10.1,31.96,WNW,292,0.0,0.0,52,0.00,CLR,SKC,0.00,WeatherDisplay:10.37,2013-02-26 10:25:00,
2013-02-26 03:30:00,25.5,10.3,31.95,WNW,292,0.0,0.0,52,0.00,CLR,SKC,0.00,WeatherDisplay:10.37,2013-02-26 10:30:00,
2013-02-26 03:35:00,25.5,10.3,31.95,WNW,292,0.0,0.0,52,0.00,CLR,SKC,0.00,WeatherDisplay:10.37,2013-02-26 10:35:00,
2013-02-26 03:40:00,25.5,10.7,31.96,WNW,292,0.0,0.0,53,0.00,CLR,SKC,0.00,WeatherDisplay:10.37,2013-02-26 10:40:00,
2013-02-26 03:45:00,25.2,10.4,31.96,WNW,292,0.0,0.0,53,0.00,CLR,SKC,0.00,WeatherDisplay:10.37,2013-02-26 10:45:00,
2013-02-26 03:50:00,24.8,10.1,31.89,WNW,292,0.0,0.0,53,0.00,CLR,SKC,0.00,WeatherDisplay:10.37,2013-02-26 10:50:00,
2013-02-26 03:55:00,24.6,9.9,31.95,NW,315,0.0,0.0,53,0.00,CLR,SKC,0.00,WeatherDisplay:10.37,2013-02-26 10:55:00,
2013-02-26 04:00:00,24.4,10.2,31.95,NNW,338,3.5,3.5,54,0.00,CLR,SKC,0.00,WeatherDisplay:10.37,2013-02-26 11:00:00,
2013-02-26 04:05:00,23.7,9.9,31.95,NNW,338,5.8,5.8,55,0.00,CLR,SKC,0.00,WeatherDisplay:10.37,2013-02-26 11:05:00,
2013-02-26 04:10:00,22.8,9.0,31.89,NW,315,2.7,2.7,55,0.00,CLR,SKC,0.00,WeatherDisplay:10.37,2013-02-26 11:10:00,
2013-02-26 04:15:00,22.6,9.3,31.95,NW,315,6.9,6.9,56,0.00,CLR,SKC,0.00,WeatherDisplay:10.37,2013-02-26 11:15:00,
2013-02-26 04:20:00,22.3,9.3,31.95,NW,315,1.2,0.0,57,0.00,CLR,SKC,0.00,WeatherDisplay:10.37,2013-02-26 11:20:00,
2013-02-26 04:25:00,21.9,9.0,31.89,NW,315,0.0,0.0,57,0.00,CLR,SKC,0.00,WeatherDisplay:10.37,2013-02-26 11:25:00,
2013-02-26 04:30:00,21.7,9.2,31.89,WNW,292,3.5,3.5,58,0.00,CLR,SKC,0.00,WeatherDisplay:10.37,2013-02-26 11:30:00,
2013-02-26 04:35:00,21.7,9.2,31.95,WNW,292,5.8,5.8,58,0.00,CLR,SKC,0.00,WeatherDisplay:10.37,2013-02-26 11:35:00,
2013-02-26 04:40:00,21.9,9.8,31.95,WNW,292,5.8,5.8,59,0.00,CLR,SKC,0.00,WeatherDisplay:10.37,2013-02-26 11:40:00,
2013-02-26 04:45:00,22.6,10.8,31.95,WNW,292,6.9,6.9,60,0.00,CLR,SKC,0.00,WeatherDisplay:10.37,2013-02-26 11:45:00,
2013-02-26 04:50:00,23.2,11.0,31.89,WNW,292,7.4,7.4,59,0.00,CLR,SKC,0.00,WeatherDisplay:10.37,2013-02-26 11:50:00,
2013-02-26 04:55:00,23.5,11.7,31.89,WNW,292,3.5,4.4,60,0.00,CLR,SKC,0.00,WeatherDisplay:10.37,2013-02-26 11:55:00,
2013-02-26 05:00:00,23.7,11.8,31.89,WNW,292,6.9,6.9,60,0.00,CLR,SKC,0.00,WeatherDisplay:10.37,2013-02-26 12:00:00,
2013-02-26 05:05:00,24.1,12.2,31.95,WNW,292,6.9,6.9,60,0.00,CLR,SKC,0.00,WeatherDisplay:10.37,2013-02-26 12:05:00,
2013-02-26 05:10:00,24.1,11.8,31.95,WNW,292,3.5,3.5,59,0.00,CLR,SKC,0.00,WeatherDisplay:10.37,2013-02-26 12:10:00,
2013-02-26 05:15:00,24.4,12.1,31.95,WNW,292,1.2,1.2,59,0.00,CLR,SKC,0.00,WeatherDisplay:10.37,2013-02-26 12:15:00,
2013-02-26 05:20:00,24.4,12.1,31.95,WNW,292,6.9,6.9,59,0.00,CLR,SKC,0.00,WeatherDisplay:10.37,2013-02-26 12:20:00,
2013-02-26 05:25:00,24.4,12.1,31.95,WNW,292,8.1,8.1,59,0.00,CLR,SKC,0.00,WeatherDisplay:10.37,2013-02-26 12:25:00,
2013-02-26 05:30:00,24.1,11.8,31.96,West,270,8.1,8.1,59,0.00,CLR,SKC,0.00,WeatherDisplay:10.37,2013-02-26 12:30:00,
2013-02-26 05:35:00,24.1,11.8,31.95,WNW,292,8.1,8.1,59,0.00,CLR,SKC,0.00,WeatherDisplay:10.37,2013-02-26 12:35:00,
2013-02-26 05:40:00,24.1,11.8,31.95,WNW,292,0.0,0.0,59,0.00,CLR,SKC,0.00,WeatherDisplay:10.37,2013-02-26 12:40:00,
2013-02-26 05:45:00,24.1,11.8,31.95,WNW,292,0.0,0.0,59,0.00,CLR,SKC,0.00,WeatherDisplay:10.37,2013-02-26 12:45:00,
2013-02-26 05:50:00,24.1,11.8,31.95,WNW,292,0.0,0.0,59,0.00,CLR,SKC,0.00,WeatherDisplay:10.37,2013-02-26 12:50:00,
2013-02-26 05:55:00,24.1,11.4,31.95,NW,315,0.0,0.0,58,0.00,CLR,SKC,0.00,WeatherDisplay:10.37,2013-02-26 12:55:00,
2013-02-26 06:00:00,23.9,11.3,31.89,North,0,0.0,0.0,58,0.00,CLR,SKC,0.00,WeatherDisplay:10.37,2013-02-26 13:00:00,
2013-02-26 06:05:00,23.7,11.1,31.96,North,0,0.0,0.0,58,0.00,CLR,SKC,0.00,WeatherDisplay:10.37,2013-02-26 13:05:00,
2013-02-26 06:10:00,23.5,10.9,31.96,NNW,338,7.2,7.2,58,0.00,CLR,SKC,0.00,WeatherDisplay:10.37,2013-02-26 13:10:00,
2013-02-26 06:15:00,23.0,10.4,31.95,NNW,338,8.3,8.3,58,0.00,CLR,SKC,0.00,WeatherDisplay:10.37,2013-02-26 13:15:00,
2013-02-26 06:20:00,22.6,10.4,31.95,NNW,338,5.8,5.8,59,0.00,CLR,SKC,0.00,WeatherDisplay:10.37,2013-02-26 13:20:00,
2013-02-26 06:25:00,22.3,10.5,31.95,NW,315,9.6,9.6,60,0.00,CLR,SKC,0.00,WeatherDisplay:10.37,2013-02-26 13:25:00,
2013-02-26 06:30:00,22.1,10.3,31.95,NW,315,8.9,8.9,60,0.00,CLR,SKC,0.00,WeatherDisplay:10.37,2013-02-26 13:30:00,
2013-02-26 06:35:00,22.1,10.7,31.95,NW,315,10.4,10.4,61,0.00,CLR,SKC,0.00,WeatherDisplay:10.37,2013-02-26 13:35:00,
2013-02-26 06:40:00,22.1,10.7,31.95,NW,315,9.2,9.2,61,0.00,CLR,SKC,0.00,WeatherDisplay:10.37,2013-02-26 13:40:00,
2013-02-26 06:45:00,21.9,10.5,31.95,WNW,292,8.1,8.1,61,0.00,CLR,SKC,0.00,WeatherDisplay:10.37,2013-02-26 13:45:00,
2013-02-26 06:50:00,21.7,10.3,31.95,WNW,292,6.9,6.9,61,0.00,CLR,SKC,0.00,WeatherDisplay:10.37,2013-02-26 13:50:00,
2013-02-26 06:55:00,21.7,10.3,31.96,WNW,292,3.5,3.5,61,0.00,CLR,SKC,0.00,WeatherDisplay:10.37,2013-02-26 13:55:00,
2013-02-26 07:00:00,21.9,10.5,31.89,WNW,292,0.0,0.0,61,0.00,CLR,SKC,0.00,WeatherDisplay:10.37,2013-02-26 14:00:00,
2013-02-26 07:06:00,22.5,11.0,31.96,WNW,292,0.0,0.0,61,0.00,CLR,SKC,0.00,WeatherDisplay:10.37,2013-02-26 14:06:00,
2013-02-26 07:11:00,22.8,11.0,31.89,NW,315,0.0,0.0,60,0.00,CLR,SKC,0.00,WeatherDisplay:10.37,2013-02-26 14:11:00,
2013-02-26 07:16:00,23.4,11.5,31.96,NW,315,0.0,0.0,60,0.00,CLR,SKC,0.00,WeatherDisplay:10.37,2013-02-26 14:16:00,
2013-02-26 07:21:00,23.7,11.8,31.89,NW,315,0.0,0.0,60,0.00,CLR,SKC,0.00,WeatherDisplay:10.37,2013-02-26 14:21:00,
2013-02-26 07:26:00,24.4,12.1,31.97,NW,315,0.0,0.0,59,0.00,CLR,SKC,0.00,WeatherDisplay:10.37,2013-02-26 14:26:00,
2013-02-26 07:31:00,25.0,12.7,31.97,NW,315,0.0,0.0,59,0.00,CLR,SKC,0.00,WeatherDisplay:10.37,2013-02-26 14:31:00,
2013-02-26 07:36:00,25.5,12.8,31.89,NW,315,0.0,0.1,58,0.00,CLR,SKC,0.00,WeatherDisplay:10.37,2013-02-26 14:36:00,
2013-02-26 07:41:00,25.7,12.9,31.89,NW,315,5.8,5.8,58,0.00,CLR,SKC,0.00,WeatherDisplay:10.37,2013-02-26 14:41:00,
2013-02-26 07:46:00,26.1,12.9,31.97,WNW,292,7.4,7.4,57,0.00,CLR,SKC,0.00,WeatherDisplay:10.37,2013-02-26 14:46:00,
2013-02-26 07:51:00,26.4,13.2,31.97,NW,315,9.2,9.2,57,0.00,CLR,SKC,0.00,WeatherDisplay:10.37,2013-02-26 14:51:00,
2013-02-26 07:56:00,26.8,13.6,31.97,NW,315,8.1,8.1,57,0.00,CLR,SKC,0.00,WeatherDisplay:10.37,2013-02-26 14:56:00,
2013-02-26 08:01:00,27.1,13.5,31.89,NW,315,5.8,5.8,56,0.00,CLR,SKC,0.00,WeatherDisplay:10.37,2013-02-26 15:01:00,
2013-02-26 08:06:00,27.7,14.0,31.89,WNW,292,6.9,6.9,56,0.00,CLR,SKC,0.00,WeatherDisplay:10.37,2013-02-26 15:06:00,
2013-02-26 08:11:00,28.0,13.9,31.97,NW,315,6.3,6.5,55,0.00,CLR,SKC,0.00,WeatherDisplay:10.37,2013-02-26 15:11:00,
2013-02-26 08:16:00,28.8,14.6,31.97,NW,315,8.1,8.1,55,0.00,CLR,SKC,0.00,WeatherDisplay:10.37,2013-02-26 15:16:00,
2013-02-26 08:21:00,29.3,15.1,31.89,NW,315,3.5,3.5,55,0.00,CLR,SKC,0.00,WeatherDisplay:10.37,2013-02-26 15:21:00,
2013-02-26 08:26:00,30.2,15.5,31.97,NW,315,0.0,0.4,54,0.00,CLR,SKC,0.00,WeatherDisplay:10.37,2013-02-26 15:26:00,
2013-02-26 08:31:00,31.1,15.9,31.97,West,270,6.9,6.9,53,0.00,CLR,SKC,0.00,WeatherDisplay:10.37,2013-02-26 15:31:00,
2013-02-26 08:36:00,32.2,16.5,31.97,NW,315,3.5,3.5,52,0.00,CLR,SKC,0.00,WeatherDisplay:10.37,2013-02-26 15:36:00,
2013-02-26 08:41:00,32.9,16.7,31.89,WNW,292,8.1,8.1,51,0.00,CLR,SKC,0.00,WeatherDisplay:10.37,2013-02-26 15:41:00,
2013-02-26 08:46:00,33.6,16.9,31.97,NW,315,8.1,8.1,50,0.00,CLR,SKC,0.00,WeatherDisplay:10.37,2013-02-26 15:46:00,
2013-02-26 08:51:00,34.3,17.1,31.97,WNW,292,8.1,8.1,49,0.00,CLR,SKC,0.00,WeatherDisplay:10.37,2013-02-26 15:51:00,
2013-02-26 08:56:00,35.4,17.7,31.97,NW,315,6.9,6.9,48,0.00,CLR,SKC,0.00,WeatherDisplay:10.37,2013-02-26 15:56:00,
2013-02-26 09:01:00,36.1,18.3,31.97,West,270,8.1,8.1,48,0.00,CLR,SKC,0.00,WeatherDisplay:10.37,2013-02-26 16:01:00,
2013-02-26 09:06:00,37.0,18.7,31.96,WNW,292,8.1,8.1,47,0.00,CLR,SKC,0.00,WeatherDisplay:10.37,2013-02-26 16:06:00,
2013-02-26 09:11:00,37.9,19.5,31.89,NW,315,4.6,4.6,47,0.00,CLR,SKC,0.00,WeatherDisplay:10.37,2013-02-26 16:11:00,
2013-02-26 09:16:00,39.0,19.4,31.89,WNW,292,8.1,8.1,45,0.00,CLR,SKC,0.00,WeatherDisplay:10.37,2013-02-26 16:16:00,
2013-02-26 09:21:00,39.9,19.7,31.96,NW,315,2.5,2.5,44,0.00,CLR,SKC,0.00,WeatherDisplay:10.37,2013-02-26 16:21:00,
2013-02-26 09:26:00,40.8,20.6,31.96,West,270,0.0,0.0,44,0.00,CLR,SKC,0.00,WeatherDisplay:10.37,2013-02-26 16:26:00,
2013-02-26 09:31:00,42.1,21.2,31.89,West,270,4.6,4.6,43,0.00,CLR,SKC,0.00,WeatherDisplay:10.37,2013-02-26 16:31:00,
2013-02-26 09:36:00,43.2,21.6,31.89,NW,315,0.0,0.3,42,0.00,CLR,SKC,0.00,WeatherDisplay:10.37,2013-02-26 16:36:00,
2013-02-26 09:41:00,44.1,21.3,31.97,West,270,0.0,0.0,40,0.00,CLR,SKC,0.00,WeatherDisplay:10.37,2013-02-26 16:41:00,
2013-02-26 09:46:00,45.0,22.1,31.96,West,270,0.0,0.0,40,0.00,CLR,SKC,0.00,WeatherDisplay:10.37,2013-02-26 16:46:00,
2013-02-26 09:51:00,46.6,23.5,31.96,West,270,0.0,0.0,40,0.00,CLR,SKC,0.00,WeatherDisplay:10.37,2013-02-26 16:51:00,
2013-02-26 09:56:00,48.0,23.6,31.96,WNW,292,2.3,0.0,38,0.00,CLR,SKC,0.00,WeatherDisplay:10.37,2013-02-26 16:56:00,
2013-02-26 10:01:00,48.9,23.8,31.96,West,270,0.0,0.0,37,0.00,CLR,SKC,0.00,WeatherDisplay:10.37,2013-02-26 17:01:00,
2013-02-26 10:06:00,50.5,24.5,31.96,West,270,0.0,0.0,36,0.00,CLR,SKC,0.00,WeatherDisplay:10.37,2013-02-26 17:06:00,
2013-02-26 10:11:00,51.6,24.8,31.96,WNW,292,0.0,0.0,35,0.00,CLR,SKC,0.00,WeatherDisplay:10.37,2013-02-26 17:11:00,
2013-02-26 10:16:00,52.5,24.9,31.89,WNW,292,0.0,0.0,34,0.00,CLR,SKC,0.00,WeatherDisplay:10.37,2013-02-26 17:16:00,
2013-02-26 10:21:00,53.4,25.7,31.96,WNW,292,0.0,0.0,34,0.00,CLR,SKC,0.00,WeatherDisplay:10.37,2013-02-26 17:21:00,
2013-02-26 10:26:00,54.9,26.3,31.89,West,270,0.0,0.0,33,0.00,CLR,SKC,0.00,WeatherDisplay:10.37,2013-02-26 17:26:00,
2013-02-26 10:31:00,56.1,26.6,31.96,West,270,0.0,0.0,32,0.00,CLR,SKC,0.00,WeatherDisplay:10.37,2013-02-26 17:31:00,
2013-02-26 10:36:00,56.7,25.5,31.89,West,270,0.0,0.0,30,0.00,CLR,SKC,0.00,WeatherDisplay:10.37,2013-02-26 17:36:00,
2013-02-26 10:41:00,57.0,25.9,31.95,West,270,0.0,0.0,30,0.00,CLR,SKC,0.00,WeatherDisplay:10.37,2013-02-26 17:41:00,
2013-02-26 10:46:00,57.7,26.5,31.96,West,270,0.0,0.0,30,0.00,CLR,SKC,0.00,WeatherDisplay:10.37,2013-02-26 17:46:00,
2013-02-26 10:51:00,58.8,26.6,31.95,West,270,0.0,0.0,29,0.00,CLR,SKC,0.00,WeatherDisplay:10.37,2013-02-26 17:51:00,
2013-02-26 10:56:00,59.7,26.5,31.95,WNW,292,0.0,0.0,28,0.00,CLR,SKC,0.00,WeatherDisplay:10.37,2013-02-26 17:56:00,
2013-02-26 11:01:00,59.9,24.9,31.95,ESE,112,1.2,1.2,26,0.00,CLR,SKC,0.00,WeatherDisplay:10.37,2013-02-26 18:01:00,
2013-02-26 11:06:00,60.1,24.1,31.95,SSE,158,0.0,0.0,25,0.00,CLR,SKC,0.00,WeatherDisplay:10.37,2013-02-26 18:06:00,
2013-02-26 11:11:00,60.4,24.4,31.95,SSE,158,1.2,0.0,25,0.00,CLR,SKC,0.00,WeatherDisplay:10.37,2013-02-26 18:11:00,
2013-02-26 11:16:00,61.9,25.6,31.89,SSW,202,8.7,8.7,25,0.00,CLR,SKC,0.00,WeatherDisplay:10.37,2013-02-26 18:16:00,
2013-02-26 11:21:00,63.0,25.6,31.95,SSW,202,6.5,0.0,24,0.00,CLR,SKC,0.00,WeatherDisplay:10.37,2013-02-26 18:21:00,
2013-02-26 11:26:00,63.7,26.2,31.95,SSE,158,3.5,3.5,24,0.00,CLR,SKC,0.00,WeatherDisplay:10.37,2013-02-26 18:26:00,
2013-02-26 11:31:00,64.2,25.6,31.95,South,180,6.9,6.9,23,0.00,CLR,SKC,0.00,WeatherDisplay:10.37,2013-02-26 18:31:00,
2013-02-26 11:36:00,64.8,26.1,31.89,South,180,0.0,2.2,23,0.00,CLR,SKC,0.00,WeatherDisplay:10.37,2013-02-26 18:36:00,
2013-02-26 11:41:00,65.5,25.6,31.95,SE,135,8.1,8.1,22,0.00,CLR,SKC,0.00,WeatherDisplay:10.37,2013-02-26 18:41:00,
2013-02-26 11:46:00,65.3,25.4,31.94,South,180,0.0,0.9,22,0.00,CLR,SKC,0.00,WeatherDisplay:10.37,2013-02-26 18:46:00,
2013-02-26 11:51:00,66.0,26.0,31.95,SSE,158,5.6,5.6,22,0.00,CLR,SKC,0.00,WeatherDisplay:10.37,2013-02-26 18:51:00,
2013-02-26 11:56:00,66.7,25.5,31.89,SSE,158,13.8,13.8,21,0.00,CLR,SKC,0.00,WeatherDisplay:10.37,2013-02-26 18:56:00,
2013-02-26 12:01:00,66.6,24.2,31.94,SE,135,6.9,6.9,20,0.00,CLR,SKC,0.00,WeatherDisplay:10.37,2013-02-26 19:01:00,
2013-02-26 12:06:00,66.7,24.3,31.94,SSE,158,8.1,8.1,20,0.00,CLR,SKC,0.00,WeatherDisplay:10.37,2013-02-26 19:06:00,
2013-02-26 12:11:00,67.1,24.6,31.89,SE,135,8.1,0.0,20,0.00,CLR,SKC,0.00,WeatherDisplay:10.37,2013-02-26 19:11:00,
2013-02-26 12:16:00,67.8,25.2,31.93,South,180,0.0,0.0,20,0.00,CLR,SKC,0.00,WeatherDisplay:10.37,2013-02-26 19:16:00,
2013-02-26 12:21:00,68.5,25.8,31.93,ESE,112,11.4,11.4,20,0.00,CLR,SKC,0.00,WeatherDisplay:10.37,2013-02-26 19:21:00,
2013-02-26 12:26:00,68.9,24.9,31.89,East,90,9.2,9.2,19,0.00,CLR,SKC,0.00,WeatherDisplay:10.37,2013-02-26 19:26:00,
2013-02-26 12:31:00,68.9,24.9,31.89,ENE,68,6.9,0.0,19,0.00,CLR,SKC,0.00,WeatherDisplay:10.37,2013-02-26 19:31:00,
2013-02-26 12:36:00,69.4,25.3,31.92,SE,135,9.2,9.2,19,0.00,CLR,SKC,0.00,WeatherDisplay:10.37,2013-02-26 19:36:00,
2013-02-26 12:41:00,69.6,25.5,31.92,SSE,158,13.8,13.8,19,0.00,CLR,SKC,0.00,WeatherDisplay:10.37,2013-02-26 19:41:00,
2013-02-26 12:46:00,69.6,24.2,31.92,ESE,112,10.4,10.4,18,0.00,CLR,SKC,0.00,WeatherDisplay:10.37,2013-02-26 19:46:00,
2013-02-26 12:51:00,70.2,24.6,31.92,SE,135,17.3,17.3,18,0.00,CLR,SKC,0.00,WeatherDisplay:10.37,2013-02-26 19:51:00,
2013-02-26 12:56:00,70.2,24.6,31.92,ESE,112,15.0,15.0,18,0.00,CLR,SKC,0.00,WeatherDisplay:10.37,2013-02-26 19:56:00,
2013-02-26 13:01:00,70.2,24.6,31.91,ESE,112,15.0,15.0,18,0.00,CLR,SKC,0.00,WeatherDisplay:10.37,2013-02-26 20:01:00,
2013-02-26 13:06:00,70.3,24.8,31.89,SE,135,12.7,12.7,18,0.00,CLR,SKC,0.00,WeatherDisplay:10.37,2013-02-26 20:06:00,
2013-02-26 13:11:00,69.6,21.4,31.91,ESE,112,20.7,20.7,16,0.00,CLR,SKC,0.00,WeatherDisplay:10.37,2013-02-26 20:11:00,
2013-02-26 13:16:00,68.5,20.5,31.89,East,90,24.2,24.2,16,0.00,CLR,SKC,0.00,WeatherDisplay:10.37,2013-02-26 20:16:00,
2013-02-26 13:21:00,66.9,20.6,31.90,East,90,22.6,22.6,17,0.00,CLR,SKC,0.00,WeatherDisplay:10.37,2013-02-26 20:21:00,
2013-02-26 13:26:00,65.7,19.6,31.91,ESE,112,25.3,25.3,17,0.00,,SKC,0.00,WeatherDisplay:10.37,2013-02-26 20:26:00,
2013-02-26 13:31:00,66.0,21.2,31.91,East,90,18.4,18.4,18,0.00,CLR,SKC,0.00,WeatherDisplay:10.37,2013-02-26 20:31:00,
2013-02-26 13:36:00,65.7,21.0,31.91,SE,135,19.6,19.6,18,0.00,CLR,SKC,0.00,WeatherDisplay:10.37,2013-02-26 20:36:00,
2013-02-26 13:41:00,66.2,21.4,31.90,East,90,15.0,15.0,18,0.00,CLR,SKC,0.00,WeatherDisplay:10.37,2013-02-26 20:41:00,
2013-02-26 13:46:00,66.7,21.8,31.90,ESE,112,16.1,16.1,18,0.00,CLR,SKC,0.00,WeatherDisplay:10.37,2013-02-26 20:46:00,
2013-02-26 13:51:00,67.3,20.9,31.90,East,90,28.8,28.8,17,0.00,CLR,SKC,0.00,WeatherDisplay:10.37,2013-02-26 20:51:00,
2013-02-26 13:56:00,65.8,19.8,31.89,ESE,112,25.3,25.3,17,0.00,CLR,SKC,0.00,WeatherDisplay:10.37,2013-02-26 20:56:00,
2013-02-26 14:01:00,65.1,20.5,31.89,ESE,112,22.3,22.6,18,0.00,CLR,SKC,0.00,WeatherDisplay:10.37,2013-02-26 21:01:00,
2013-02-26 14:06:00,63.9,18.1,31.89,East,90,29.9,29.9,17,0.00,,SKC,0.00,WeatherDisplay:10.37,2013-02-26 21:06:00,
2013-02-26 14:11:00,63.0,18.7,31.89,ESE,112,33.4,33.4,18,0.00,,SKC,0.00,WeatherDisplay:10.37,2013-02-26 21:11:00,
2013-02-26 14:16:00,63.0,18.7,31.90,East,90,27.6,27.6,18,0.00,,SKC,0.00,WeatherDisplay:10.37,2013-02-26 21:16:00,
2013-02-26 14:21:00,63.1,18.9,31.90,ESE,112,29.5,30.4,18,0.00,,SKC,0.00,WeatherDisplay:10.37,2013-02-26 21:21:00,
2013-02-26 14:26:00,62.8,17.3,31.90,East,90,33.4,33.4,17,0.00,,SKC,0.00,WeatherDisplay:10.37,2013-02-26 21:26:00,
2013-02-26 14:31:00,62.4,18.3,31.90,ESE,112,31.1,31.1,18,0.00,,SKC,0.00,WeatherDisplay:10.37,2013-02-26 21:31:00,
2013-02-26 14:36:00,62.4,18.3,31.89,ESE,112,33.4,33.4,18,0.00,,SKC,0.00,WeatherDisplay:10.37,2013-02-26 21:36:00,
2013-02-26 14:41:00,62.1,18.0,31.89,East,90,33.4,33.4,18,0.00,,SKC,0.00,WeatherDisplay:10.37,2013-02-26 21:41:00,
2013-02-26 14:46:00,61.5,18.8,31.90,ESE,112,29.9,29.9,19,0.00,,SKC,0.00,WeatherDisplay:10.37,2013-02-26 21:46:00,
2013-02-26 14:51:00,61.7,19.0,31.90,ENE,68,35.7,35.7,19,0.00,,SKC,0.00,WeatherDisplay:10.37,2013-02-26 21:51:00,
2013-02-26 14:56:00,61.0,18.4,31.89,East,90,32.2,32.2,19,0.00,,SKC,0.00,WeatherDisplay:10.37,2013-02-26 21:56:00,
2013-02-26 15:01:00,61.0,18.4,31.90,ENE,68,27.6,27.6,19,0.00,,SKC,0.00,WeatherDisplay:10.37,2013-02-26 22:01:00,
2013-02-26 15:06:00,60.6,18.1,31.89,ENE,68,36.8,36.8,19,0.00,,SKC,0.00,WeatherDisplay:10.37,2013-02-26 22:06:00,
2013-02-26 15:11:00,61.2,18.5,31.89,ESE,112,38.0,38.0,19,0.00,,SKC,0.00,WeatherDisplay:10.37,2013-02-26 22:11:00,
2013-02-26 15:16:00,61.5,18.8,31.89,East,90,34.5,34.5,19,0.00,,SKC,0.00,WeatherDisplay:10.37,2013-02-26 22:16:00,
2013-02-26 15:21:00,61.3,18.7,31.89,East,90,29.9,29.9,19,0.00,,SKC,0.00,WeatherDisplay:10.37,2013-02-26 22:21:00,
2013-02-26 15:26:00,61.3,18.7,31.89,East,90,35.7,35.7,19,0.00,,SKC,0.00,WeatherDisplay:10.37,2013-02-26 22:26:00,
2013-02-26 15:31:00,61.3,18.7,31.89,East,90,27.6,28.1,19,0.00,CLR,SKC,0.00,WeatherDisplay:10.37,2013-02-26 22:31:00,
2013-02-26 15:36:00,61.3,18.7,31.89,ESE,112,42.6,42.6,19,0.00,,SKC,0.00,WeatherDisplay:10.37,2013-02-26 22:36:00,
2013-02-26 15:41:00,60.8,18.2,31.90,East,90,34.5,34.5,19,0.00,,SKC,0.00,WeatherDisplay:10.37,2013-02-26 22:41:00,
2013-02-26 15:46:00,61.0,18.4,31.89,East,90,32.2,32.2,19,0.00,,SKC,0.00,WeatherDisplay:10.37,2013-02-26 22:46:00,
2013-02-26 15:51:00,60.6,18.1,31.90,East,90,28.8,28.8,19,0.00,,SKC,0.00,WeatherDisplay:10.37,2013-02-26 22:51:00,
2013-02-26 15:56:00,60.4,17.9,31.89,ESE,112,27.6,27.6,19,0.00,,SKC,0.00,WeatherDisplay:10.37,2013-02-26 22:56:00,
2013-02-26 16:01:00,60.6,18.1,31.89,ESE,112,35.7,35.7,19,0.00,,SKC,0.00,WeatherDisplay:10.37,2013-02-26 23:01:00,
2013-02-26 16:06:00,60.4,19.1,31.89,ENE,68,27.6,27.6,20,0.00,,SKC,0.00,WeatherDisplay:10.37,2013-02-26 23:06:00,
2013-02-26 16:11:00,60.6,18.1,31.90,East,90,29.9,29.9,19,0.00,,SKC,0.00,WeatherDisplay:10.37,2013-02-26 23:11:00,
2013-02-26 16:16:00,60.4,17.9,31.89,ESE,112,33.4,33.4,19,0.00,,SKC,0.00,WeatherDisplay:10.37,2013-02-26 23:16:00,
2013-02-26 16:21:00,60.6,19.3,31.90,East,90,29.9,29.9,20,0.00,,SKC,0.00,WeatherDisplay:10.37,2013-02-26 23:21:00,
2013-02-26 16:26:00,60.6,19.3,31.90,ENE,68,27.6,27.6,20,0.00,,SKC,0.00,WeatherDisplay:10.37,2013-02-26 23:26:00,
2013-02-26 16:31:00,60.6,19.3,31.89,East,90,32.2,32.2,20,0.00,CLR,SKC,0.00,WeatherDisplay:10.37,2013-02-26 23:31:00,
2013-02-26 16:36:00,60.1,18.8,31.89,ENE,68,33.4,33.4,20,0.00,,SKC,0.00,WeatherDisplay:10.37,2013-02-26 23:36:00,
2013-02-26 16:41:00,60.1,18.8,31.89,East,90,32.2,32.2,20,0.00,,SKC,0.00,WeatherDisplay:10.37,2013-02-26 23:41:00,
2013-02-26 16:46:00,59.7,18.5,31.90,ENE,68,33.4,33.4,20,0.00,,SKC,0.00,WeatherDisplay:10.37,2013-02-26 23:46:00,
2013-02-26 16:51:00,59.5,18.4,31.90,ENE,68,27.6,27.6,20,0.00,,SKC,0.00,WeatherDisplay:10.37,2013-02-26 23:51:00,
2013-02-26 16:56:00,59.5,18.4,31.90,East,90,26.1,26.6,20,0.00,,SKC,0.00,WeatherDisplay:10.37,2013-02-26 23:56:00,
2013-02-26 17:01:00,59.5,18.4,31.90,East,90,24.4,24.4,20,0.00,,SKC,0.00,WeatherDisplay:10.37,2013-02-27 00:01:00,
2013-02-26 17:06:00,59.5,17.2,31.90,East,90,32.2,32.2,19,0.00,,SKC,0.00,WeatherDisplay:10.37,2013-02-27 00:06:00,
2013-02-26 17:11:00,59.4,18.2,31.90,East,90,28.8,28.8,20,0.00,,SKC,0.00,WeatherDisplay:10.37,2013-02-27 00:11:00,
2013-02-26 17:16:00,59.2,18.1,31.89,East,90,24.2,30.5,20,0.00,CLR,SKC,0.00,WeatherDisplay:10.37,2013-02-27 00:16:00,
2013-02-26 17:21:00,58.8,16.6,31.90,East,90,28.8,28.8,19,0.00,,SKC,0.00,WeatherDisplay:10.37,2013-02-27 00:21:00,
2013-02-26 17:26:00,58.6,16.4,31.90,East,90,32.0,32.0,19,0.00,,SKC,0.00,WeatherDisplay:10.37,2013-02-27 00:26:00,
2013-02-26 17:31:00,58.3,17.3,31.90,East,90,28.8,28.8,20,0.00,,SKC,0.00,WeatherDisplay:10.37,2013-02-27 00:31:00,
2013-02-26 17:36:00,57.9,17.0,31.90,East,90,28.8,28.8,20,0.00,,SKC,0.00,WeatherDisplay:10.37,2013-02-27 00:36:00,
2013-02-26 17:41:00,57.7,16.9,31.89,East,90,33.4,33.4,20,0.00,,SKC,0.00,WeatherDisplay:10.37,2013-02-27 00:41:00,
2013-02-26 17:46:00,57.6,16.7,31.91,East,90,26.5,26.5,20,0.00,,SKC,0.00,WeatherDisplay:10.37,2013-02-27 00:46:00,
2013-02-26 17:51:00,57.2,16.4,31.89,ENE,68,28.4,28.4,20,0.00,,SKC,0.00,WeatherDisplay:10.37,2013-02-27 00:51:00,
2013-02-26 17:56:00,57.0,17.4,31.91,East,90,21.2,21.3,21,0.00,CLR,SKC,0.00,WeatherDisplay:10.37,2013-02-27 00:56:00,
2013-02-26 18:01:00,56.5,17.0,31.90,East,90,23.0,23.0,21,0.00,CLR,SKC,0.00,WeatherDisplay:10.37,2013-02-27 01:01:00,
2013-02-26 18:06:00,56.1,16.7,31.90,ESE,112,24.2,24.2,21,0.00,,SKC,0.00,WeatherDisplay:10.37,2013-02-27 01:06:00,
2013-02-26 18:11:00,55.6,16.2,31.89,East,90,21.9,21.9,21,0.00,CLR,SKC,0.00,WeatherDisplay:10.37,2013-02-27 01:11:00,
2013-02-26 18:16:00,55.0,16.8,31.90,ENE,68,26.5,26.5,22,0.00,,SKC,0.00,WeatherDisplay:10.37,2013-02-27 01:16:00,
2013-02-26 18:21:00,54.5,16.4,31.91,East,90,24.2,24.2,22,0.00,CLR,SKC,0.00,WeatherDisplay:10.37,2013-02-27 01:21:00,
2013-02-26 18:26:00,54.0,15.9,31.89,East,90,15.0,17.1,22,0.00,CLR,SKC,0.00,WeatherDisplay:10.37,2013-02-27 01:26:00,
2013-02-26 18:31:00,53.4,16.5,31.92,ENE,68,20.7,20.7,23,0.00,CLR,SKC,0.00,WeatherDisplay:10.37,2013-02-27 01:31:00,
2013-02-26 18:36:00,53.2,16.3,31.92,ENE,68,21.9,21.9,23,0.00,CLR,SKC,0.00,WeatherDisplay:10.37,2013-02-27 01:36:00,
2013-02-26 18:41:00,52.9,16.0,31.92,East,90,18.4,18.4,23,0.00,CLR,SKC,0.00,WeatherDisplay:10.37,2013-02-27 01:41:00,
2013-02-26 18:46:00,52.5,16.7,31.89,ESE,112,24.2,24.2,24,0.00,CLR,SKC,0.00,WeatherDisplay:10.37,2013-02-27 01:46:00,
2013-02-26 18:51:00,52.3,16.6,31.92,East,90,22.3,22.3,24,0.00,CLR,SKC,0.00,WeatherDisplay:10.37,2013-02-27 01:51:00,
2013-02-26 18:56:00,52.0,17.2,31.93,East,90,25.3,25.3,25,0.00,CLR,SKC,0.00,WeatherDisplay:10.37,2013-02-27 01:56:00,
2013-02-26 19:01:00,51.6,17.8,31.93,East,90,20.8,20.8,26,0.00,CLR,SKC,0.00,WeatherDisplay:10.37,2013-02-27 02:01:00,
2013-02-26 19:06:00,51.4,17.6,31.93,East,90,24.2,24.2,26,0.00,,SKC,0.00,WeatherDisplay:10.37,2013-02-27 02:06:00,
2013-02-26 19:11:00,51.1,17.3,31.93,ENE,68,21.0,21.0,26,0.00,CLR,SKC,0.00,WeatherDisplay:10.37,2013-02-27 02:11:00,
2013-02-26 19:16:00,50.7,17.9,31.89,East,90,25.3,25.3,27,0.00,CLR,SKC,0.00,WeatherDisplay:10.37,2013-02-27 02:16:00,
2013-02-26 19:21:00,50.5,17.7,31.89,East,90,19.7,19.7,27,0.00,CLR,SKC,0.00,WeatherDisplay:10.37,2013-02-27 02:21:00,
2013-02-26 19:27:00,50.4,18.4,31.94,ENE,68,24.2,24.2,28,0.00,CLR,SKC,0.00,WeatherDisplay:10.37,2013-02-27 02:27:00,
2013-02-26 19:32:00,50.2,18.3,31.94,East,90,20.7,20.7,28,0.00,CLR,SKC,0.00,WeatherDisplay:10.37,2013-02-27 02:32:00,
2013-02-26 19:37:00,49.8,18.0,31.94,East,90,21.9,21.9,28,0.00,CLR,SKC,0.00,WeatherDisplay:10.37,2013-02-27 02:37:00,
2013-02-26 19:42:00,49.8,18.0,31.94,East,90,21.9,21.9,28,0.00,CLR,SKC,0.00,WeatherDisplay:10.37,2013-02-27 02:42:00,
2013-02-26 19:47:00,49.6,18.6,31.94,East,90,20.7,20.7,29,0.00,CLR,SKC,0.00,WeatherDisplay:10.37,2013-02-27 02:47:00,
2013-02-26 19:52:00,49.3,18.3,31.94,East,90,19.6,19.6,29,0.00,CLR,SKC,0.00,WeatherDisplay:10.37,2013-02-27 02:52:00,
2013-02-26 19:57:00,49.1,18.2,31.89,East,90,17.3,17.3,29,0.00,CLR,SKC,0.00,WeatherDisplay:10.37,2013-02-27 02:57:00,
2013-02-26 20:02:00,48.9,18.0,31.95,East,90,20.7,20.7,29,0.00,CLR,SKC,0.00,WeatherDisplay:10.37,2013-02-27 03:02:00,
2013-02-26 20:07:00,48.7,17.9,31.95,ENE,68,19.6,19.6,29,0.00,CLR,SKC,0.00,WeatherDisplay:10.37,2013-02-27 03:07:00,
2013-02-26 20:12:00,48.6,17.7,31.95,East,90,15.0,15.0,29,0.00,CLR,SKC,0.00,WeatherDisplay:10.37,2013-02-27 03:12:00,
2013-02-26 20:17:00,48.4,17.5,31.96,East,90,16.1,16.1,29,0.00,CLR,SKC,0.00,WeatherDisplay:10.37,2013-02-27 03:17:00,
2013-02-26 20:22:00,48.4,17.5,31.96,SSW,202,8.1,8.1,29,0.00,CLR,SKC,0.00,WeatherDisplay:10.37,2013-02-27 03:22:00,
2013-02-26 20:27:00,47.8,17.1,31.97,SSW,202,9.2,9.2,29,0.00,CLR,SKC,0.00,WeatherDisplay:10.37,2013-02-27 03:27:00,
2013-02-26 20:32:00,47.5,16.8,31.97,SSW,202,5.8,5.8,29,0.00,CLR,SKC,0.00,WeatherDisplay:10.37,2013-02-27 03:32:00,
2013-02-26 20:37:00,47.1,16.4,31.97,SE,135,12.1,12.1,29,0.00,CLR,SKC,0.00,WeatherDisplay:10.37,2013-02-27 03:37:00,
2013-02-26 20:42:00,46.9,16.3,31.89,East,90,15.0,15.0,29,0.00,CLR,SKC,0.00,WeatherDisplay:10.37,2013-02-27 03:42:00,
2013-02-26 20:47:00,47.1,17.2,31.97,ESE,112,12.7,12.7,30,0.00,CLR,SKC,0.00,WeatherDisplay:10.37,2013-02-27 03:47:00,
2013-02-26 20:52:00,47.1,17.2,31.98,ESE,112,19.6,19.6,30,0.00,CLR,SKC,0.00,WeatherDisplay:10.37,2013-02-27 03:52:00,
2013-02-26 20:57:00,47.1,17.2,31.98,East,90,13.8,13.8,30,0.00,CLR,SKC,0.00,WeatherDisplay:10.37,2013-02-27 03:57:00,
2013-02-26 21:02:00,46.9,17.1,31.98,ESE,112,12.7,12.7,30,0.00,CLR,SKC,0.00,WeatherDisplay:10.37,2013-02-27 04:02:00,
2013-02-26 21:07:00,46.9,17.1,31.98,ESE,112,13.8,13.8,30,0.00,CLR,SKC,0.00,WeatherDisplay:10.37,2013-02-27 04:07:00,
2013-02-26 21:12:00,46.6,16.8,31.89,ESE,112,11.5,11.5,30,0.00,CLR,SKC,0.00,WeatherDisplay:10.37,2013-02-27 04:12:00,
2013-02-26 21:17:00,46.4,16.6,32.00,East,90,11.5,11.5,30,0.00,CLR,SKC,0.00,WeatherDisplay:10.37,2013-02-27 04:17:00,
2013-02-26 21:22:00,46.2,16.4,32.00,East,90,13.8,13.8,30,0.00,CLR,SKC,0.00,WeatherDisplay:10.37,2013-02-27 04:22:00,
2013-02-26 21:27:00,46.0,17.0,31.89,ESE,112,15.0,15.0,31,0.00,CLR,SKC,0.00,WeatherDisplay:10.37,2013-02-27 04:27:00,
2013-02-26 21:32:00,45.9,16.9,32.00,East,90,9.6,9.6,31,0.00,CLR,SKC,0.00,WeatherDisplay:10.37,2013-02-27 04:32:00,
2013-02-26 21:37:00,45.5,16.6,32.01,ESE,112,10.4,10.4,31,0.00,CLR,SKC,0.00,WeatherDisplay:10.37,2013-02-27 04:37:00,
2013-02-26 21:42:00,45.3,16.4,32.01,ESE,112,10.4,10.4,31,0.00,CLR,SKC,0.00,WeatherDisplay:10.37,2013-02-27 04:42:00,
2013-02-26 21:47:00,45.1,16.3,31.89,ESE,112,8.1,8.1,31,0.00,CLR,SKC,0.00,WeatherDisplay:10.37,2013-02-27 04:47:00,
2013-02-26 21:52:00,45.0,16.1,31.89,ESE,112,11.5,11.5,31,0.00,CLR,SKC,0.00,WeatherDisplay:10.37,2013-02-27 04:52:00,
2013-02-26 21:57:00,44.8,16.7,32.02,East,90,8.1,8.1,32,0.00,CLR,SKC,0.00,WeatherDisplay:10.37,2013-02-27 04:57:00,
2013-02-26 22:00:00,44.6,16.5,32.02,East,90,9.2,9.2,32,0.00,CLR,SKC,0.00,WeatherDisplay:10.37,2013-02-27 05:00:00,
2013-02-26 22:05:00,44.4,16.4,32.01,East,90,9.2,9.2,32,0.00,CLR,SKC,0.00,WeatherDisplay:10.37,2013-02-27 05:05:00,
2013-02-26 22:10:00,43.9,15.9,31.89,East,90,9.2,9.2,32,0.00,CLR,SKC,0.00,WeatherDisplay:10.37,2013-02-27 05:10:00,
2013-02-26 22:15:00,43.5,15.6,31.89,East,90,7.6,7.6,32,0.00,CLR,SKC,0.00,WeatherDisplay:10.37,2013-02-27 05:15:00,
2013-02-26 22:20:00,43.2,16.0,31.89,East,90,9.2,9.2,33,0.00,CLR,SKC,0.00,WeatherDisplay:10.37,2013-02-27 05:20:00,
2013-02-26 22:25:00,43.0,15.8,32.02,ESE,112,2.3,2.3,33,0.00,CLR,SKC,0.00,WeatherDisplay:10.37,2013-02-27 05:25:00,
2013-02-26 22:30:00,42.6,15.5,32.02,ESE,112,5.8,5.8,33,0.00,CLR,SKC,0.00,WeatherDisplay:10.37,2013-02-27 05:30:00,
2013-02-26 22:35:00,42.4,15.3,32.02,ESE,112,0.0,0.0,33,0.00,CLR,SKC,0.00,WeatherDisplay:10.37,2013-02-27 05:35:00,
2013-02-26 22:40:00,42.1,15.0,32.02,ESE,112,0.0,0.0,33,0.00,CLR,SKC,0.00,WeatherDisplay:10.37,2013-02-27 05:40:00,
2013-02-26 22:45:00,41.7,14.7,32.03,SSW,202,5.4,5.4,33,0.00,CLR,SKC,0.00,WeatherDisplay:10.37,2013-02-27 05:45:00,
2013-02-26 22:50:00,41.2,14.2,32.02,SSW,202,0.0,0.0,33,0.00,CLR,SKC,0.00,WeatherDisplay:10.37,2013-02-27 05:50:00,
2013-02-26 22:55:00,41.0,14.1,32.03,SSW,202,0.0,0.0,33,0.00,CLR,SKC,0.00,WeatherDisplay:10.37,2013-02-27 05:55:00,
2013-02-26 23:00:00,40.8,14.6,31.89,SSW,202,0.0,0.0,34,0.00,CLR,SKC,0.00,WeatherDisplay:10.37,2013-02-27 06:00:00,
2013-02-26 23:05:00,40.6,14.4,32.03,SSW,202,0.0,0.0,34,0.00,CLR,SKC,0.00,WeatherDisplay:10.37,2013-02-27 06:05:00,
2013-02-26 23:10:00,40.6,15.1,32.03,SSW,202,5.8,5.8,35,0.00,CLR,SKC,0.00,WeatherDisplay:10.37,2013-02-27 06:10:00,
2013-02-26 23:15:00,40.3,14.8,32.03,SSW,202,0.0,0.0,35,0.00,CLR,SKC,0.00,WeatherDisplay:10.37,2013-02-27 06:15:00,
2013-02-26 23:20:00,39.9,14.4,31.89,SSW,202,0.0,0.0,35,0.00,CLR,SKC,0.00,WeatherDisplay:10.37,2013-02-27 06:20:00,
2013-02-26 23:25:00,39.9,14.4,32.04,South,180,0.0,0.0,35,0.00,CLR,SKC,0.00,WeatherDisplay:10.37,2013-02-27 06:25:00,
2013-02-26 23:30:00,39.6,14.1,31.89,South,180,0.0,0.0,35,0.00,CLR,SKC,0.00,WeatherDisplay:10.37,2013-02-27 06:30:00,
2013-02-26 23:35:00,39.2,14.4,32.04,South,180,0.0,0.0,36,0.00,CLR,SKC,0.00,WeatherDisplay:10.37,2013-02-27 06:35:00,
2013-02-26 23:40:00,38.8,14.1,31.89,South,180,0.0,0.0,36,0.00,CLR,SKC,0.00,WeatherDisplay:10.37,2013-02-27 06:40:00,
2013-02-26 23:45:00,38.8,14.1,32.04,South,180,0.0,0.0,36,0.00,CLR,SKC,0.00,WeatherDisplay:10.37,2013-02-27 06:45:00,
2013-02-26 23:50:00,38.5,14.4,32.04,South,180,0.0,0.0,37,0.00,CLR,SKC,0.00,WeatherDisplay:10.37,2013-02-27 06:50:00,
2013-02-26 23:55:00,38.1,14.1,32.04,South,180,0.0,0.0,37,0.00,CLR,SKC,0.00,WeatherDisplay:10.37,2013-02-27 06:55:00,